Flag for U.S.A. Weather past 2 weeks in Greeley, Colorado, U.S.A.

Now
72 °F

Partly sunny.


Feels Like: 77 °F
Forecast: 59 / 72 °F
Wind: 13 mph from Southeast

Location: Greeley / Weld

Current Time: Jul 7, 2015 at 4:18:23 PM

Latest Report: Jul 7, 2015 at 3:35 PM


Visibility: 5 mi

Pressure: 30.11 "Hg (25.53 "Hg at 1424m altitude)

Humidity: 50%

Dew point: 52 °F

Location of GreeleyLocation

Historic Weather in Greeley — Graph

°F

Greeley temperature yesterday

Maximum temperature yesterday: 70 °F (at 2:55 PM)
Minimum temperature yesterday: 63 °F (at 3:35 AM)
Average temperature yesterday: 65 °F

Past Weeks' High & Low Weather Summary

 TemperatureHumidityPressure
High95 °F (Jun 30, 2:15 PM)94% (Jun 24, 2:35 AM)30.31 "Hg (Jun 24, 2:35 AM)
Low55 °F (Jun 25, 5:15 AM)17% (Jun 30, 12:55 PM)29.90 "Hg (Jul 4, 4:55 PM)
Average72 °F61%30.14 "Hg
* Reported Jun 22 2:15 PM — Jul 7 2:55 PM, Greeley, Weather by CustomWeather, © 2015

Note: Actual official high and low records may vary slightly from our data, if they occured in-between our weather recording intervals... More about our weather records

Advertising

Greeley weather history for previous 24 hours

 ConditionsComfort  
Time TempWeatherWind HumidityBarometerVisibility
2:55 PM
Tue, Jul 7
73 °FOvercast.12 mph50%30.12 "Hg6 mi
2:35 PM73 °FOvercast.14 mph47%30.13 "Hg5 mi
2:15 PM73 °FScattered clouds.14 mph47%30.13 "Hg5 mi
1:55 PM73 °FPassing clouds.16 mph50%30.13 "Hg5 mi
1:35 PM73 °FOvercast.15 mph50%30.13 "Hg5 mi
1:15 PM73 °FOvercast.16 mph47%30.13 "Hg5 mi
12:55 PM73 °FMore clouds than sun.14 mph50%30.14 "Hg5 mi
12:35 PM73 °FMore clouds than sun.14 mph50%30.15 "Hg5 mi
12:15 PM72 °FOvercast.13 mph53%30.15 "Hg5 mi
11:55 AM70 °FOvercast.12 mph53%30.16 "Hg5 mi
11:35 AM72 °FPartly sunny.12 mph53%30.16 "Hg5 mi
11:15 AM73 °FBroken clouds.13 mph53%30.17 "Hg4 mi
10:55 AM72 °FPartly sunny.12 mph53%30.18 "Hg4 mi
10:35 AM68 °FOvercast.13 mph60%30.19 "Hg4 mi
10:15 AM66 °FScattered clouds.15 mph60%30.19 "Hg4 mi
9:55 AM66 °FSunny.15 mph64%30.20 "Hg4 mi
9:35 AM64 °FSunny.16 mph64%30.20 "Hg4 mi
9:15 AM64 °FSunny.14 mph64%30.21 "Hg4 mi
8:55 AM64 °FSunny.13 mph64%30.21 "Hg4 mi
8:35 AM63 °FSunny.15 mph68%30.21 "Hg4 mi
8:15 AM64 °FPassing clouds.15 mph64%30.21 "Hg4 mi
7:55 AM63 °FScattered clouds.13 mph68%30.22 "Hg4 mi
7:35 AM63 °FSunny.10 mph68%30.22 "Hg4 mi
7:15 AM61 °FPassing clouds.9 mph72%30.21 "Hg4 mi
6:55 AM61 °FScattered clouds.10 mph72%30.21 "Hg4 mi
6:35 AM61 °FScattered clouds.7 mph72%30.22 "Hg4 mi
6:15 AM61 °FClear.6 mph72%30.22 "Hg4 mi
5:55 AM61 °FClear.7 mph72%30.22 "Hg4 mi
5:35 AM61 °FClear.8 mph72%30.22 "Hg5 mi
5:15 AM61 °FClear.7 mph72%30.21 "Hg5 mi
4:55 AM61 °FPassing clouds.12 mph72%30.22 "Hg5 mi
4:35 AM61 °FClear.13 mph72%30.22 "Hg5 mi
4:15 AM61 °FPassing clouds.14 mph72%30.23 "Hg5 mi
3:55 AM63 °FPassing clouds.12 mph68%30.23 "Hg5 mi
3:35 AM63 °FPassing clouds.10 mph68%30.24 "Hg5 mi
3:15 AM63 °FPassing clouds.8 mph73%30.25 "Hg5 mi
2:55 AM63 °FClear.9 mph73%30.25 "Hg5 mi
2:35 AM63 °FPassing clouds.9 mph73%30.25 "Hg5 mi
2:15 AM63 °FPassing clouds.8 mph73%30.26 "Hg5 mi
1:55 AM63 °FMostly cloudy.7 mph73%30.26 "Hg5 mi
1:35 AM63 °FMostly cloudy.8 mph73%30.26 "Hg5 mi
1:15 AM63 °FOvercast.6 mph73%30.27 "Hg5 mi
12:55 AM63 °FPassing clouds.7 mph73%30.27 "Hg5 mi
12:35 AM63 °FClear.7 mph73%30.27 "Hg5 mi
12:15 AM63 °FPassing clouds.8 mph73%30.28 "Hg5 mi
11:55 PM
Mon, Jul 6
63 °FClear.7 mph73%30.28 "Hg5 mi
11:35 PM63 °FPartly cloudy.8 mph73%30.28 "Hg5 mi
11:15 PM63 °FOvercast.13 mph73%30.29 "Hg5 mi
10:55 PM63 °FOvercast.7 mph77%30.29 "Hg5 mi
10:35 PM63 °FOvercast.5 mph77%30.29 "Hg5 mi
10:15 PM63 °FOvercast.No wind83%30.29 "Hg4 mi
9:55 PM63 °FOvercast.No wind83%30.29 "Hg4 mi
9:15 PM64 °FOvercast.5 mph78%30.26 "Hg4 mi
8:55 PM64 °FOvercast.No wind68%30.25 "Hg5 mi
8:35 PM64 °FScattered clouds.5 mph68%30.24 "Hg7 mi
8:15 PM64 °FSunny.3 mph68%30.24 "Hg5 mi
7:55 PM64 °FSunny.5 mph68%30.24 "Hg5 mi
7:35 PM66 °FPassing clouds.6 mph64%30.24 "Hg4 mi
7:15 PM66 °FPassing clouds.7 mph64%30.23 "Hg4 mi
6:55 PM66 °FSunny.8 mph64%30.23 "Hg3 mi
6:35 PM66 °FSunny.7 mph64%30.24 "Hg4 mi
6:15 PM66 °FPassing clouds.7 mph64%30.24 "Hg5 mi
5:55 PM66 °FScattered clouds.8 mph64%30.25 "Hg4 mi
5:35 PM66 °FPartly sunny.9 mph64%30.25 "Hg4 mi
5:15 PM68 °FBroken clouds.8 mph60%30.25 "Hg4 mi
4:55 PM68 °FBroken clouds.6 mph60%30.26 "Hg5 mi
4:35 PM66 °FBroken clouds.7 mph64%30.26 "Hg5 mi
Weather by CustomWeather, © 2015

See weather overviewHow to use our weather pages